Regional Weather Roundup
Issued by NWS Cleveland, OH

Home | Current Version | Previous Version | Text Only | Print | Product List | Glossary Off
Versions: 1 2 3 4 5 6 7 8 9 10 11 12 13 14 15 16 17 18 19 20 21 22 23 24 25 26 27 28 29 30 31 32 33 34 35 36 37 38 39 40 41 42 43 44 45 46 47 48 49 50

000
ASUS41 KCLE 230802
RWRCLE
OHIO REGIONAL WEATHER ROUNDUP
NATIONAL WEATHER SERVICE CLEVELAND, OH
400 AM EDT SAT JUL 23 2016

NOTE: "FAIR" INDICATES FEW OR NO CLOUDS BELOW 12,000 FEET WITH NO
SIGNIFICANT WEATHER AND/OR OBSTRUCTIONS TO VISIBILITY.

OHZ001>008-015>018-024>027-034-035-043-044-230900-
   NORTHWEST OHIO

CITY           SKY/WX    TMP DP  RH WIND       PRES   REMARKS
DEFIANCE       CLEAR     73  69  87 SW3       30.00R
FINDLAY        MOCLDY    76  70  82 SW3       29.99S
TOLEDO EXPRESS CLEAR     74  72  93 W3        29.99R
TOLEDO EXEC    CLEAR     74  72  93 W5        29.99S
LIMA           CLEAR     73  72  96 SW3       30.01S
$$

OHZ009>014-019>023-028>033-038-089-230900-
   NORTHEAST OHIO

CITY           SKY/WX    TMP DP  RH WIND       PRES   REMARKS
CLE-HOPKINS    CLEAR     76  71  85 SW5       30.00R
CLE-LAKEFRONT  CLEAR     79  73  82 SW8       29.96R
CUY CO. ARPT   NOT AVBL
LORAIN-ELYRIA  CLEAR     73  70  90 SW5       29.99R
ASHTABULA      CLEAR     69  68  96 CALM      29.98R
AKRON-CANTON   CLEAR     73  70  90 SW3       30.01S
WOOSTER        CLEAR     72  71  97 W6        30.01S FOG
MANSFIELD      CLEAR     74  74 100 SW6       30.02S
YOUNGSTOWN     PTCLDY    72  70  93 SW5       29.99S
$$

OHZ042-051>053-060>062-070>072-077>081-230900-
  SOUTHWEST OHIO

CITY           SKY/WX    TMP DP  RH WIND       PRES   REMARKS
CINC-COVINGTON CLEAR     71  71 100 CALM      30.03S
CINC-LUNKEN    CLEAR     71  71 100 CALM      30.02S FOG
HAMILTON       CLEAR     70  68  93 CALM      30.03S FOG
DAYTON         CLEAR     72  71  97 SW7       30.04S
WRIGHT-PAT AFB CLEAR     73  73 100 S3        30.02S
DAYTON GENERAL PTCLDY    74  69  85 CALM      30.02S
WILMINGTON     CLEAR     70  68  93 SW6       30.03S
$$

OHZ036-037-039>041-045>050-054>059-063>069-073>076-082>088-230900-
  CENTRAL AND SOUTHEAST OHIO

CITY           SKY/WX    TMP DP  RH WIND       PRES   REMARKS
COLUMBUS       CLEAR     71  69  93 CALM      30.01S
OSU AIRPORT    CLEAR     72  70  93 W3        30.01S
BOLTON FIELD   CLEAR     69  69 100 SW3       30.02F FOG
RICKENBACK AFB CLEAR     69  68  98 S5        30.01S FOG
NEWARK         CLEAR     68  67  96 CALM      30.01F
MARION         CLEAR     75  72  90 W6        30.02S FOG
LANCASTER      CLEAR     69  68  96 CALM      30.02F
ZANESVILLE     CLEAR     71  67  87 S3        30.02F
NEW PHILLY     CLEAR     74  69  85 CALM      30.01S
$$



USA.gov is the U.S. government's official web portal to all federal, state and local government web resources and services.